| time (UTC) | temp C | wind direction | speed KPH | gust KPH | rain 1hr cm | rain 24hr cm | rain mn cm | humidity % | barometer mb |
| 20260905235714 | 18 | 320 | 11.3 | 25.7 | 0.00 | 0.00 | 0.00 | 61 | 1022.2 |
| 20260905235215 | 19 | 347 | 11.3 | 25.7 | 0.00 | 0.00 | 0.00 | 63 | 1022.2 |
| 20260905234715 | 18 | 288 | 11.3 | 19.3 | 0.00 | 0.00 | 0.00 | 64 | 1022.2 |
| 20260905233719 | 19 | 332 | 6.4 | 19.3 | 0.00 | 0.00 | 0.00 | 66 | 1022.1 |
| 20260905233214 | 19 | 5 | 6.4 | 17.7 | 0.00 | 0.00 | 0.00 | 66 | 1022.0 |
| 20260905232711 | 19 | 310 | 8.0 | 17.7 | 0.00 | 0.00 | 0.00 | 65 | 1022.0 |
| 20260905232216 | 19 | 337 | 8.0 | 17.7 | 0.00 | 0.00 | 0.00 | 65 | 1021.9 |
| 20260905231711 | 19 | 329 | 8.0 | 16.1 | 0.00 | 0.00 | 0.00 | 66 | 1021.8 |
| 20260905231219 | 19 | 312 | 6.4 | 14.5 | 0.00 | 0.00 | 0.00 | 66 | 1021.7 |
| 20260905225716 | 19 | 329 | 6.4 | 17.7 | 0.00 | 0.00 | 0.00 | 66 | 1021.5 |
| 20260905224706 | 18 | 309 | 8.0 | 16.1 | 0.00 | 0.00 | 0.00 | 68 | 1021.5 |
| 20260905224210 | 18 | 341 | 8.0 | 24.1 | 0.00 | 0.00 | 0.00 | 68 | 1021.4 |
| 20260905223711 | 18 | 295 | 9.7 | 24.1 | 0.00 | 0.00 | 0.00 | 69 | 1021.2 |
| 20260905223210 | 18 | 312 | 9.7 | 17.7 | 0.00 | 0.00 | 0.00 | 69 | 1021.2 |
| 20260905221714 | 17 | 300 | 8.0 | 12.9 | 0.00 | 0.00 | 0.00 | 70 | 1021.1 |
| 20260905221215 | 17 | 296 | 4.8 | 9.7 | 0.00 | 0.00 | 0.00 | 70 | 1021.2 |
| 20260905220718 | 17 | 283 | 3.2 | 9.7 | 0.00 | 0.00 | 0.00 | 70 | 1021.1 |
| 20260905220219 | 17 | 304 | 3.2 | 4.8 | 0.00 | 0.00 | 0.00 | 70 | 1021.2 |
| 20260905215707 | 17 | 295 | 1.6 | 6.4 | 0.00 | 0.00 | 0.00 | 70 | 1021.1 |
| 20260905214708 | 17 | 276 | 3.2 | 6.4 | 0.00 | 0.00 | 0.00 | 68 | 1020.9 |
| 20260905214212 | 17 | 280 | 3.2 | 6.4 | 0.00 | 0.00 | 0.00 | 68 | 1020.9 |
| 20260905213705 | 17 | 285 | 3.2 | 6.4 | 0.00 | 0.00 | 0.00 | 68 | 1020.9 |
| 20260905213209 | 17 | 275 | 3.2 | 12.9 | 0.00 | 0.00 | 0.00 | 68 | 1020.9 |
| 20260905212717 | 17 | 293 | 4.8 | 12.9 | 0.00 | 0.00 | 0.00 | 68 | 1020.9 |
| 20260905212213 | 17 | 286 | 4.8 | 12.9 | 0.00 | 0.00 | 0.00 | 68 | 1020.8 |
| 20260905211719 | 17 | 298 | 3.2 | 6.4 | 0.00 | 0.00 | 0.00 | 67 | 1020.8 |
| 20260905210710 | 17 | 290 | 3.2 | 6.4 | 0.00 | 0.00 | 0.00 | 67 | 1020.7 |
| 20260905210214 | 18 | 309 | 4.8 | 6.4 | 0.00 | 0.00 | 0.00 | 66 | 1020.7 |
| 20260905205716 | 18 | 311 | 3.2 | 6.4 | 0.00 | 0.00 | 0.00 | 67 | 1020.8 |
| 20260905205213 | 18 | 321 | 3.2 | 9.7 | 0.00 | 0.00 | 0.00 | 66 | 1020.8 |
| 20260905204715 | 18 | 302 | 3.2 | 9.7 | 0.00 | 0.00 | 0.00 | 66 | 1020.8 |
| 20260905204218 | 18 | 282 | 3.2 | 9.7 | 0.00 | 0.00 | 0.00 | 66 | 1020.8 |
| 20260905203717 | 18 | 269 | 4.8 | 6.4 | 0.00 | 0.00 | 0.00 | 65 | 1020.8 |
| 20260905203211 | 18 | 297 | 4.8 | 6.4 | 0.00 | 0.00 | 0.00 | 65 | 1020.8 |
| 20260905202721 | 18 | 279 | 4.8 | 6.4 | 0.00 | 0.00 | 0.00 | 64 | 1020.8 |
| 20260905202232 | 18 | 301 | 3.2 | 4.8 | 0.00 | 0.00 | 0.00 | 65 | 1020.8 |
| 20260905201713 | 18 | 298 | 1.6 | 4.8 | 0.00 | 0.00 | 0.00 | 65 | 1020.8 |
| 20260905200715 | 19 | 280 | 3.2 | 6.4 | 0.00 | 0.00 | 0.00 | 64 | 1020.7 |
| 20260905200215 | 19 | 300 | 3.2 | 6.4 | 0.00 | 0.00 | 0.00 | 64 | 1020.7 |
| 20260905195708 | 19 | 300 | 3.2 | 9.7 | 0.00 | 0.00 | 0.00 | 63 | 1020.6 |
| 20260905195217 | 19 | 318 | 3.2 | 11.3 | 0.00 | 0.00 | 0.00 | 63 | 1020.6 |
| 20260905194716 | 19 | 279 | 4.8 | 11.3 | 0.00 | 0.00 | 0.00 | 63 | 1020.5 |
| 20260905194207 | 19 | 273 | 4.8 | 11.3 | 0.00 | 0.00 | 0.00 | 63 | 1020.5 |
| 20260905193709 | 19 | 299 | 4.8 | 9.7 | 0.00 | 0.00 | 0.00 | 63 | 1020.5 |
| 20260905193212 | 19 | 302 | 4.8 | 9.7 | 0.00 | 0.00 | 0.00 | 63 | 1020.5 |
| 20260905192708 | 19 | 301 | 4.8 | 9.7 | 0.00 | 0.00 | 0.00 | 63 | 1020.5 |
| 20260905192206 | 20 | 265 | 4.8 | 9.7 | 0.00 | 0.00 | 0.00 | 64 | 1020.4 |
| 20260905185736 | 20 | 276 | 3.2 | 9.7 | 0.00 | 0.00 | 0.00 | 63 | 1020.2 |
| 20260905185219 | 20 | 284 | 3.2 | 9.7 | 0.00 | 0.00 | 0.00 | 63 | 1020.1 |
| 20260905184210 | 20 | 283 | 4.8 | 8.0 | 0.00 | 0.00 | 0.00 | 63 | 1019.9 |
| 20260905183710 | 20 | 303 | 4.8 | 8.0 | 0.00 | 0.00 | 0.00 | 63 | 1019.9 |
| 20260905183205 | 21 | 304 | 4.8 | 6.4 | 0.00 | 0.00 | 0.00 | 63 | 1019.8 |
| 20260905182719 | 21 | 302 | 4.8 | 6.4 | 0.00 | 0.00 | 0.00 | 62 | 1019.8 |
| 20260905182216 | 21 | 301 | 4.8 | 8.0 | 0.00 | 0.00 | 0.00 | 62 | 1019.7 |
| 20260905181717 | 21 | 311 | 4.8 | 8.0 | 0.00 | 0.00 | 0.00 | 62 | 1019.6 |
| 20260905181205 | 21 | 325 | 4.8 | 8.0 | 0.00 | 0.00 | 0.00 | 61 | 1019.6 |
| 20260905180705 | 21 | 351 | 4.8 | 14.5 | 0.00 | 0.00 | 0.00 | 61 | 1019.6 |
| 20260905180216 | 21 | 342 | 3.2 | 14.5 | 0.00 | 0.00 | 0.00 | 60 | 1019.5 |
| 20260905175710 | 21 | 323 | 4.8 | 14.5 | 0.00 | 0.00 | 0.00 | 60 | 1019.4 |
| 20260905175212 | 21 | 346 | 4.8 | 17.7 | 0.00 | 0.00 | 0.00 | 60 | 1019.3 |
| 20260905174705 | 21 | 344 | 6.4 | 17.7 | 0.00 | 0.00 | 0.00 | 59 | 1019.2 |
| 20260905174214 | 22 | 0 | 8.0 | 24.1 | 0.00 | 0.00 | 0.00 | 59 | 1019.2 |
| 20260905173220 | 22 | 311 | 8.0 | 17.7 | 0.00 | 0.00 | 0.00 | 58 | 1019.1 |
| 20260905172709 | 22 | 355 | 8.0 | 20.9 | 0.00 | 0.00 | 0.00 | 59 | 1019.0 |
| 20260905172211 | 22 | 328 | 9.7 | 20.9 | 0.00 | 0.00 | 0.00 | 59 | 1019.0 |
| 20260905171713 | 22 | 0 | 9.7 | 22.5 | 0.00 | 0.00 | 0.00 | 59 | 1019.0 |
| 20260905171206 | 22 | 311 | 11.3 | 22.5 | 0.00 | 0.00 | 0.00 | 58 | 1019.0 |
| 20260905170714 | 22 | 323 | 11.3 | 22.5 | 0.00 | 0.00 | 0.00 | 57 | 1018.9 |
| 20260905170213 | 22 | 325 | 9.7 | 22.5 | 0.00 | 0.00 | 0.00 | 57 | 1018.7 |
| 20260905165708 | 22 | 342 | 12.9 | 25.7 | 0.00 | 0.00 | 0.00 | 57 | 1018.7 |
| 20260905165213 | 23 | 321 | 16.1 | 25.7 | 0.00 | 0.00 | 0.00 | 57 | 1018.6 |
| 20260905164717 | 23 | 5 | 16.1 | 29.0 | 0.00 | 0.00 | 0.00 | 56 | 1018.5 |
| 20260905164238 | 23 | 331 | 14.5 | 29.0 | 0.00 | 0.00 | 0.00 | 55 | 1018.3 |
| 20260905163211 | 23 | 19 | 12.9 | 25.7 | 0.00 | 0.00 | 0.00 | 55 | 1018.2 |
| 20260905162708 | 23 | 16 | 12.9 | 29.0 | 0.00 | 0.00 | 0.00 | 54 | 1018.3 |
| 20260905162215 | 23 | 314 | 16.1 | 29.0 | 0.00 | 0.00 | 0.00 | 54 | 1018.2 |
| 20260905161716 | 23 | 348 | 17.7 | 29.0 | 0.00 | 0.00 | 0.00 | 54 | 1018.2 |
| 20260905161207 | 23 | 5 | 16.1 | 29.0 | 0.00 | 0.00 | 0.00 | 53 | 1018.1 |
| 20260905160718 | 24 | 339 | 16.1 | 29.0 | 0.00 | 0.00 | 0.00 | 53 | 1018.0 |
| 20260905160219 | 24 | 334 | 16.1 | 29.0 | 0.00 | 0.00 | 0.00 | 53 | 1018.0 |
| 20260905155707 | 24 | 325 | 14.5 | 29.0 | 0.00 | 0.00 | 0.00 | 52 | 1017.9 |
| 20260905155219 | 24 | 349 | 16.1 | 29.0 | 0.00 | 0.00 | 0.00 | 51 | 1017.9 |
| 20260905154715 | 25 | 335 | 16.1 | 27.4 | 0.00 | 0.00 | 0.00 | 50 | 1018.0 |
| 20260905154215 | 25 | 316 | 12.9 | 24.1 | 0.00 | 0.00 | 0.00 | 49 | 1017.9 |
| 20260905153206 | 25 | 300 | 12.9 | 27.4 | 0.00 | 0.00 | 0.00 | 49 | 1017.8 |
| 20260905152210 | 25 | 298 | 16.1 | 27.4 | 0.00 | 0.00 | 0.00 | 47 | 1017.8 |
| 20260905151709 | 25 | 348 | 16.1 | 27.4 | 0.00 | 0.00 | 0.00 | 46 | 1017.7 |
| 20260905151215 | 25 | 340 | 14.5 | 27.4 | 0.00 | 0.00 | 0.00 | 46 | 1017.6 |
| 20260905150716 | 25 | 350 | 12.9 | 22.5 | 0.00 | 0.00 | 0.00 | 46 | 1017.6 |
| 20260905145716 | 25 | 312 | 12.9 | 29.0 | 0.00 | 0.00 | 0.00 | 44 | 1017.7 |
| 20260905145215 | 25 | 282 | 14.5 | 29.0 | 0.00 | 0.00 | 0.00 | 44 | 1017.7 |
| 20260905144708 | 25 | 308 | 14.5 | 24.1 | 0.00 | 0.00 | 0.00 | 45 | 1017.6 |
| 20260905144219 | 25 | 284 | 12.9 | 24.1 | 0.00 | 0.00 | 0.00 | 45 | 1017.6 |
| 20260905143711 | 25 | 319 | 11.3 | 24.1 | 0.00 | 0.00 | 0.00 | 46 | 1017.6 |
| 20260905143219 | 25 | 327 | 8.0 | 19.3 | 0.00 | 0.00 | 0.00 | 47 | 1017.6 |
| 20260905141712 | 25 | 17 | 11.3 | 22.5 | 0.00 | 0.00 | 0.00 | 50 | 1017.7 |
| 20260905140715 | 24 | 313 | 11.3 | 22.5 | 0.00 | 0.00 | 0.00 | 51 | 1017.8 |
| 20260905140206 | 24 | 355 | 11.3 | 20.9 | 0.00 | 0.00 | 0.00 | 51 | 1017.9 |
| 20260905135706 | 24 | 344 | 11.3 | 22.5 | 0.00 | 0.00 | 0.00 | 51 | 1018.0 |
| 20260905135243 | 24 | 298 | 14.5 | 30.6 | 0.00 | 0.00 | 0.00 | 52 | 1018.0 |
| 20260905134710 | 24 | 343 | 14.5 | 30.6 | 0.00 | 0.00 | 0.00 | 52 | 1018.1 |
| 20260905134216 | 24 | 300 | 16.1 | 32.2 | 0.00 | 0.00 | 0.00 | 52 | 1018.1 |
| 20260905133719 | 24 | 335 | 17.7 | 38.6 | 0.00 | 0.00 | 0.00 | 51 | 1018.1 |
| 20260905133209 | 24 | 347 | 19.3 | 38.6 | 0.00 | 0.00 | 0.00 | 50 | 1018.0 |
| 20260905132719 | 25 | 344 | 19.3 | 38.6 | 0.00 | 0.00 | 0.00 | 50 | 1017.9 |
| 20260905132216 | 25 | 319 | 19.3 | 35.4 | 0.00 | 0.00 | 0.00 | 49 | 1017.9 |
| 20260905131716 | 25 | 338 | 19.3 | 35.4 | 0.00 | 0.00 | 0.00 | 49 | 1017.8 |
| 20260905131208 | 25 | 348 | 17.7 | 30.6 | 0.00 | 0.00 | 0.00 | 49 | 1017.8 |
| 20260905130707 | 25 | 0 | 16.1 | 30.6 | 0.00 | 0.00 | 0.00 | 49 | 1017.9 |
| 20260905130214 | 25 | 26 | 16.1 | 25.7 | 0.00 | 0.00 | 0.00 | 49 | 1017.9 |
| 20260905125719 | 25 | 339 | 16.1 | 25.7 | 0.00 | 0.00 | 0.00 | 49 | 1017.9 |
| 20260905125207 | 25 | 343 | 16.1 | 33.8 | 0.00 | 0.00 | 0.00 | 48 | 1017.9 |
| 20260905124713 | 25 | 333 | 16.1 | 33.8 | 0.00 | 0.00 | 0.00 | 49 | 1017.9 |
| 20260905124216 | 25 | 290 | 14.5 | 32.2 | 0.00 | 0.00 | 0.00 | 50 | 1017.9 |
| 20260905123718 | 25 | 335 | 16.1 | 37.0 | 0.00 | 0.00 | 0.00 | 50 | 1017.9 |
| 20260905123219 | 24 | 335 | 19.3 | 37.0 | 0.00 | 0.00 | 0.00 | 49 | 1017.9 |
| 20260905122210 | 25 | 344 | 19.3 | 37.0 | 0.00 | 0.00 | 0.00 | 49 | 1017.8 |
| 20260905121717 | 25 | 326 | 19.3 | 37.0 | 0.00 | 0.00 | 0.00 | 50 | 1017.9 |
| 20260905121205 | 25 | 5 | 17.7 | 37.0 | 0.00 | 0.00 | 0.00 | 50 | 1017.9 |
| 20260905120214 | 24 | 317 | 19.3 | 37.0 | 0.00 | 0.00 | 0.00 | 52 | 1018.0 |
| 20260905115708 | 24 | 306 | 20.9 | 37.0 | 0.00 | 0.00 | 0.00 | 52 | 1017.8 |
| 20260905115216 | 24 | 333 | 19.3 | 37.0 | 0.00 | 0.00 | 0.00 | 52 | 1018.0 |
| 20260905114709 | 24 | 344 | 19.3 | 37.0 | 0.00 | 0.00 | 0.00 | 51 | 1017.9 |
| 20260905114205 | 24 | 330 | 20.9 | 37.0 | 0.00 | 0.00 | 0.00 | 51 | 1018.0 |
| 20260905113721 | 25 | 322 | 17.7 | 27.4 | 0.00 | 0.00 | 0.00 | 51 | 1018.0 |
| 20260905113206 | 24 | 293 | 14.5 | 27.4 | 0.00 | 0.00 | 0.00 | 53 | 1017.9 |
| 20260905112710 | 24 | 296 | 11.3 | 16.1 | 0.00 | 0.00 | 0.00 | 53 | 1017.9 |
| 20260905112209 | 23 | 341 | 4.8 | 12.9 | 0.00 | 0.00 | 0.00 | 55 | 1017.9 |
| 20260905111219 | 23 | 331 | 4.8 | 12.9 | 0.00 | 0.00 | 0.00 | 59 | 1018.2 |
| 20260905110716 | 22 | 23 | 4.8 | 12.9 | 0.00 | 0.00 | 0.00 | 59 | 1018.3 |
| 20260905110212 | 22 | 40 | 3.2 | 6.4 | 0.00 | 0.00 | 0.00 | 60 | 1018.2 |
| 20260905105211 | 22 | 74 | 3.2 | 8.0 | 0.00 | 0.00 | 0.00 | 59 | 1018.3 |
| 20260905104713 | 21 | 350 | 3.2 | 11.3 | 0.00 | 0.00 | 0.00 | 60 | 1018.3 |
| 20260905104208 | 21 | 89 | 4.8 | 12.9 | 0.00 | 0.00 | 0.00 | 61 | 1018.3 |
| 20260905103708 | 21 | 74 | 4.8 | 12.9 | 0.00 | 0.00 | 0.00 | 62 | 1018.3 |
| 20260905101713 | 21 | 256 | 9.7 | 16.1 | 0.00 | 0.00 | 0.00 | 63 | 1018.4 |
| 20260905101230 | 21 | 254 | 8.0 | 17.7 | 0.00 | 0.00 | 0.00 | 63 | 1018.3 |
| 20260905100705 | 20 | 221 | 9.7 | 17.7 | 0.00 | 0.00 | 0.00 | 64 | 1018.3 |
| 20260905100232 | 20 | 258 | 9.7 | 17.7 | 0.00 | 0.00 | 0.00 | 64 | 1018.5 |
| 20260905095242 | 20 | 255 | 4.8 | 19.3 | 0.00 | 0.00 | 0.00 | 64 | 1018.4 |
| 20260905094745 | 20 | 305 | 8.0 | 20.9 | 0.00 | 0.00 | 0.00 | 63 | 1018.5 |
| 20260905093719 | 21 | 250 | 14.5 | 20.9 | 0.00 | 0.00 | 0.00 | 63 | 1018.7 |
| 20260905092215 | 21 | 281 | 8.0 | 27.4 | 0.00 | 0.00 | 0.00 | 62 | 1018.6 |
| 20260905091707 | 21 | 298 | 4.8 | 16.1 | 0.00 | 0.00 | 0.00 | 62 | 1018.6 |
| 20260905090715 | 20 | 219 | 4.8 | 16.1 | 0.00 | 0.00 | 0.00 | 63 | 1018.7 |
| 20260905090210 | 20 | 213 | 3.2 | 8.0 | 0.00 | 0.00 | 0.00 | 63 | 1018.7 |
| 20260905085708 | 20 | 265 | 3.2 | 9.7 | 0.00 | 0.00 | 0.00 | 63 | 1018.7 |
| 20260905084709 | 20 | 315 | 4.8 | 16.1 | 0.00 | 0.00 | 0.00 | 62 | 1018.8 |
| 20260905084212 | 20 | 5 | 4.8 | 19.3 | 0.00 | 0.00 | 0.00 | 63 | 1018.7 |
| 20260905083711 | 20 | 5 | 6.4 | 19.3 | 0.00 | 0.00 | 0.00 | 63 | 1018.9 |
| 20260905083209 | 20 | 5 | 8.0 | 20.9 | 0.00 | 0.00 | 0.00 | 62 | 1019.0 |
| 20260905082709 | 20 | 355 | 9.7 | 20.9 | 0.00 | 0.00 | 0.00 | 62 | 1019.0 |
| 20260905082212 | 20 | 349 | 9.7 | 17.7 | 0.00 | 0.00 | 0.00 | 62 | 1018.9 |
| 20260905081706 | 20 | 324 | 9.7 | 17.7 | 0.00 | 0.00 | 0.00 | 62 | 1018.9 |
| 20260905081215 | 19 | 30 | 8.0 | 17.7 | 0.00 | 0.00 | 0.00 | 62 | 1019.0 |
| 20260905080713 | 19 | 59 | 9.7 | 19.3 | 0.00 | 0.00 | 0.00 | 63 | 1019.1 |
| 20260905080218 | 19 | 345 | 9.7 | 22.5 | 0.00 | 0.00 | 0.00 | 62 | 1019.1 |
| 20260905075211 | 19 | 323 | 11.3 | 24.1 | 0.00 | 0.00 | 0.00 | 62 | 1019.2 |
| 20260905074719 | 19 | 297 | 11.3 | 24.1 | 0.00 | 0.00 | 0.00 | 62 | 1019.2 |
| 20260905074221 | 19 | 312 | 14.5 | 24.1 | 0.00 | 0.00 | 0.00 | 61 | 1019.2 |
| 20260905073713 | 19 | 311 | 12.9 | 25.7 | 0.00 | 0.00 | 0.00 | 61 | 1019.2 |
| 20260905073210 | 19 | 347 | 11.3 | 25.7 | 0.00 | 0.00 | 0.00 | 61 | 1019.3 |
| 20260905072216 | 19 | 332 | 9.7 | 17.7 | 0.00 | 0.00 | 0.00 | 61 | 1019.5 |
| 20260905071716 | 19 | 305 | 9.7 | 17.7 | 0.00 | 0.00 | 0.00 | 61 | 1019.3 |
| 20260905071210 | 19 | 321 | 11.3 | 17.7 | 0.00 | 0.00 | 0.00 | 61 | 1019.2 |
| 20260905070718 | 19 | 325 | 9.7 | 17.7 | 0.00 | 0.00 | 0.00 | 61 | 1019.1 |
| 20260905070207 | 19 | 350 | 8.0 | 30.6 | 0.00 | 0.00 | 0.00 | 61 | 1019.0 |
| 20260905065715 | 19 | 348 | 9.7 | 30.6 | 0.00 | 0.00 | 0.00 | 61 | 1018.9 |
| 20260905064713 | 19 | 9 | 16.1 | 27.4 | 0.00 | 0.00 | 0.00 | 60 | 1019.4 |
| 20260905064234 | 19 | 306 | 14.5 | 25.7 | 0.00 | 0.00 | 0.00 | 61 | 1019.6 |
| 20260905063714 | 19 | 327 | 16.1 | 25.7 | 0.00 | 0.00 | 0.00 | 61 | 1019.3 |
| 20260905063219 | 19 | 329 | 16.1 | 32.2 | 0.00 | 0.00 | 0.00 | 61 | 1019.0 |
| 20260905062214 | 19 | 40 | 16.1 | 32.2 | 0.00 | 0.00 | 0.00 | 60 | 1018.5 |
| 20260905061711 | 19 | 350 | 14.5 | 24.1 | 0.00 | 0.00 | 0.00 | 59 | 1018.2 |
| 20260905061215 | 19 | 36 | 14.5 | 29.0 | 0.00 | 0.00 | 0.00 | 60 | 1018.4 |
| 20260905060718 | 19 | 355 | 14.5 | 29.0 | 0.00 | 0.00 | 0.00 | 59 | 1018.2 |
| 20260905060214 | 19 | 10 | 12.9 | 29.0 | 0.00 | 0.00 | 0.00 | 60 | 1018.2 |
| 20260905055218 | 19 | 19 | 12.9 | 29.0 | 0.00 | 0.00 | 0.00 | 61 | 1017.9 |
| 20260905054709 | 19 | 349 | 12.9 | 22.5 | 0.00 | 0.00 | 0.00 | 62 | 1018.0 |
| 20260905054216 | 19 | 47 | 11.3 | 25.7 | 0.00 | 0.00 | 0.00 | 63 | 1017.8 |
| 20260905053707 | 19 | 14 | 14.5 | 25.7 | 0.00 | 0.00 | 0.00 | 63 | 1017.4 |
| 20260905053208 | 19 | 27 | 12.9 | 24.1 | 0.00 | 0.00 | 0.00 | 63 | 1017.0 |
| 20260905052710 | 19 | 38 | 12.9 | 24.1 | 0.00 | 0.00 | 0.00 | 64 | 1016.7 |
| 20260905052209 | 20 | 25 | 11.3 | 24.1 | 0.00 | 0.00 | 0.00 | 64 | 1016.5 |
| 20260905051718 | 19 | 348 | 9.7 | 20.9 | 0.00 | 0.00 | 0.00 | 64 | 1016.2 |
| 20260905051212 | 20 | 28 | 9.7 | 20.9 | 0.00 | 0.00 | 0.00 | 65 | 1016.1 |
| 20260905050719 | 20 | 36 | 9.7 | 22.5 | 0.00 | 0.00 | 0.00 | 65 | 1016.1 |
| 20260905050209 | 20 | 44 | 14.5 | 22.5 | 0.00 | 0.00 | 0.00 | 65 | 1015.9 |
| 20260905045708 | 20 | 13 | 14.5 | 22.5 | 0.00 | 0.00 | 0.00 | 65 | 1015.7 |
| 20260905045216 | 20 | 355 | 12.9 | 29.0 | 0.00 | 0.00 | 0.00 | 65 | 1015.5 |
| 20260905044718 | 20 | 15 | 14.5 | 32.2 | 0.00 | 0.00 | 0.00 | 64 | 1015.5 |
| 20260905043716 | 20 | 333 | 17.7 | 40.2 | 0.00 | 0.00 | 0.00 | 63 | 1015.4 |
| 20260905043216 | 20 | 5 | 20.9 | 40.2 | 0.00 | 0.00 | 0.00 | 62 | 1015.3 |
| 20260905042709 | 21 | 19 | 22.5 | 40.2 | 0.00 | 0.00 | 0.00 | 62 | 1014.9 |
| 20260905042212 | 21 | 19 | 22.5 | 45.1 | 0.00 | 0.00 | 0.00 | 63 | 1014.7 |
| 20260905041709 | 22 | 15 | 24.1 | 45.1 | 0.00 | 0.00 | 0.00 | 64 | 1014.5 |
| 20260905040710 | 23 | 323 | 20.9 | 38.6 | 0.00 | 0.00 | 0.00 | 65 | 1014.0 |
| 20260905040213 | 23 | 21 | 17.7 | 33.8 | 0.00 | 0.00 | 0.00 | 64 | 1013.7 |
| 20260905035708 | 23 | 75 | 16.1 | 32.2 | 0.00 | 0.00 | 0.00 | 63 | 1013.6 |
| 20260905035213 | 23 | 35 | 12.9 | 32.2 | 0.00 | 0.00 | 0.00 | 63 | 1013.3 |
| 20260905034708 | 23 | 13 | 12.9 | 27.4 | 0.00 | 0.00 | 0.00 | 64 | 1013.0 |
| 20260905033713 | 21 | 296 | 9.7 | 17.7 | 0.00 | 0.00 | 0.00 | 68 | 1012.6 |
| 20260905033213 | 21 | 5 | 6.4 | 17.7 | 0.00 | 0.00 | 0.00 | 69 | 1012.7 |
| 20260905032716 | 20 | 321 | 4.8 | 14.5 | 0.00 | 0.00 | 0.00 | 69 | 1012.8 |
| 20260905032210 | 20 | 261 | 4.8 | 14.5 | 0.00 | 0.00 | 0.00 | 69 | 1013.1 |
| 20260905031706 | 20 | 298 | 3.2 | 14.5 | 0.00 | 0.00 | 0.00 | 70 | 1013.2 |
| 20260905031218 | 20 | 355 | 3.2 | 12.9 | 0.00 | 0.00 | 0.00 | 69 | 1013.0 |
| 20260905030227 | 19 | 288 | 4.8 | 9.7 | 0.00 | 0.00 | 0.00 | 69 | 1013.0 |
| 20260905025711 | 19 | 263 | 6.4 | 9.7 | 0.00 | 0.00 | 0.00 | 69 | 1012.8 |
| 20260905024716 | 19 | 262 | 4.8 | 9.7 | 0.00 | 0.00 | 0.00 | 69 | 1012.8 |
| 20260905024220 | 19 | 238 | 4.8 | 8.0 | 0.00 | 0.00 | 0.00 | 69 | 1012.7 |
| 20260905023711 | 20 | 250 | 4.8 | 8.0 | 0.00 | 0.00 | 0.00 | 68 | 1012.6 |
| 20260905023214 | 20 | 250 | 4.8 | 8.0 | 0.00 | 0.00 | 0.00 | 68 | 1012.3 |
| 20260905022714 | 20 | 256 | 4.8 | 8.0 | 0.00 | 0.00 | 0.00 | 68 | 1012.3 |
| 20260905022211 | 20 | 252 | 4.8 | 8.0 | 0.00 | 0.00 | 0.00 | 67 | 1012.4 |
| 20260905021717 | 20 | 231 | 4.8 | 8.0 | 0.00 | 0.00 | 0.00 | 67 | 1012.4 |
| 20260905021207 | 20 | 243 | 4.8 | 6.4 | 0.00 | 0.00 | 0.00 | 67 | 1012.5 |
| 20260905020217 | 20 | 270 | 4.8 | 6.4 | 0.00 | 0.00 | 0.00 | 66 | 1012.3 |
| 20260905015718 | 20 | 263 | 4.8 | 6.4 | 0.00 | 0.00 | 0.00 | 67 | 1012.3 |
| 20260905015219 | 20 | 249 | 3.2 | 8.0 | 0.00 | 0.00 | 0.00 | 66 | 1012.2 |
| 20260905014711 | 20 | 268 | 4.8 | 8.0 | 0.00 | 0.00 | 0.00 | 66 | 1012.3 |
| 20260905014218 | 20 | 253 | 4.8 | 8.0 | 0.00 | 0.00 | 0.00 | 66 | 1012.3 |
| 20260905013717 | 20 | 246 | 3.2 | 11.3 | 0.00 | 0.00 | 0.00 | 66 | 1012.2 |
| 20260905013219 | 20 | 272 | 4.8 | 11.3 | 0.00 | 0.00 | 0.00 | 67 | 1012.1 |
| 20260905012206 | 20 | 275 | 6.4 | 14.5 | 0.00 | 0.00 | 0.00 | 67 | 1012.2 |
| 20260905011714 | 20 | 246 | 8.0 | 14.5 | 0.00 | 0.00 | 0.00 | 66 | 1012.1 |
| 20260905011217 | 20 | 225 | 9.7 | 14.5 | 0.00 | 0.00 | 0.00 | 66 | 1012.2 |
| 20260905010204 | 20 | 249 | 8.0 | 16.1 | 0.00 | 0.00 | 0.00 | 66 | 1012.2 |
| 20260905005710 | 20 | 226 | 9.7 | 17.7 | 0.00 | 0.00 | 0.00 | 66 | 1012.2 |
| 20260905005219 | 20 | 227 | 11.3 | 17.7 | 0.00 | 0.00 | 0.00 | 66 | 1012.1 |
| 20260905004207 | 20 | 231 | 9.7 | 16.1 | 0.00 | 0.00 | 0.00 | 66 | 1012.1 |
| 20260905003707 | 20 | 239 | 11.3 | 16.1 | 0.00 | 0.00 | 0.00 | 66 | 1012.1 |
| 20260905003214 | 20 | 254 | 11.3 | 16.1 | 0.00 | 0.00 | 0.00 | 65 | 1012.0 |
| 20260905002210 | 20 | 254 | 9.7 | 17.7 | 0.00 | 0.00 | 0.00 | 65 | 1012.0 |
| 20260905001726 | 20 | 248 | 11.3 | 17.7 | 0.00 | 0.00 | 0.00 | 65 | 1011.9 |
| 20260905001211 | 20 | 256 | 11.3 | 17.7 | 0.00 | 0.00 | 0.00 | 65 | 1011.9 |
| 20260905000717 | 20 | 246 | 9.7 | 14.5 | 0.00 | 0.00 | 0.00 | 65 | 1012.0 |
| 20260905000212 | 20 | 249 | 9.7 | 14.5 | 0.00 | 0.00 | 0.00 | 64 | 1012.0 |